Time,TemperatureF,DewpointF,PressureIn,WindDirection,WindDirectionDegrees,WindSpeedMPH,WindSpeedGustMPH,Humidity,HourlyPrecipIn,Conditions,Clouds,dailyrainin,SoftwareType,DateUTC
2013-12-24 00:04:00,59.5,25.5,30.26,NW,315,14.0,14.0,27,0.00,,,0.00,VISReader,2013-12-24 07:04:00,
2013-12-24 00:09:00,59.7,25.7,30.26,WNW,292,15.0,16.1,27,0.00,,,0.00,VISReader,2013-12-24 07:09:00,
2013-12-24 00:14:00,59.7,25.7,30.25,NW,315,10.9,16.1,27,0.00,,,0.00,VISReader,2013-12-24 07:14:00,
2013-12-24 00:19:00,59.5,25.5,30.25,NNW,337,10.4,17.6,27,0.00,,,0.00,VISReader,2013-12-24 07:19:00,
2013-12-24 00:24:00,59.7,25.7,30.25,WNW,292,13.0,17.6,27,0.00,,,0.00,VISReader,2013-12-24 07:24:00,
2013-12-24 00:29:00,59.5,25.5,30.25,NW,315,8.9,16.1,27,0.00,,,0.00,VISReader,2013-12-24 07:29:00,
2013-12-24 00:34:00,59.5,25.5,30.25,NW,315,15.0,15.5,27,0.00,,,0.00,VISReader,2013-12-24 07:34:00,
2013-12-24 00:40:00,59.5,25.5,30.25,WNW,292,9.4,16.1,27,0.00,,,0.00,VISReader,2013-12-24 07:40:00,
2013-12-24 00:45:00,59.4,25.4,30.25,NNW,337,17.1,17.1,27,0.00,,,0.00,VISReader,2013-12-24 07:45:00,
2013-12-24 00:50:00,59.2,25.2,30.24,NW,315,14.5,18.1,27,0.00,,,0.00,VISReader,2013-12-24 07:50:00,
2013-12-24 00:58:00,59.0,25.1,30.24,NW,315,11.4,15.5,27,0.00,,,0.00,VISReader,2013-12-24 07:58:00,
2013-12-24 01:07:00,58.6,25.6,30.24,NNW,337,11.9,15.0,28,0.00,,,0.00,VISReader,2013-12-24 08:07:00,
2013-12-24 01:12:00,59.0,25.9,30.24,NW,315,15.0,15.0,28,0.00,,,0.00,VISReader,2013-12-24 08:12:00,
2013-12-24 01:17:00,59.2,26.1,30.24,WNW,292,13.5,15.0,28,0.00,,,0.00,VISReader,2013-12-24 08:17:00,
2013-12-24 01:22:00,58.8,25.8,30.24,NW,315,14.5,15.0,28,0.00,,,0.00,VISReader,2013-12-24 08:22:00,
2013-12-24 01:27:00,58.8,25.8,30.24,WNW,292,13.0,14.5,28,0.00,,,0.00,VISReader,2013-12-24 08:27:00,
2013-12-24 01:34:00,58.8,25.8,30.24,NNW,337,12.5,13.5,28,0.00,,,0.00,VISReader,2013-12-24 08:34:00,
2013-12-24 01:39:00,59.0,25.9,30.24,NW,315,16.1,16.1,28,0.00,,,0.00,VISReader,2013-12-24 08:39:00,
2013-12-24 01:44:00,59.0,25.9,30.24,NW,315,10.9,17.1,28,0.00,,,0.00,VISReader,2013-12-24 08:44:00,
2013-12-24 01:49:00,59.0,25.9,30.24,NNW,337,13.5,17.1,28,0.00,,,0.00,VISReader,2013-12-24 08:49:00,
2013-12-24 01:54:00,58.6,26.4,30.23,WNW,292,13.5,16.1,29,0.00,,,0.00,VISReader,2013-12-24 08:54:00,
2013-12-24 01:59:00,58.6,26.4,30.23,NW,315,12.5,15.0,29,0.00,,,0.00,VISReader,2013-12-24 08:59:00,
2013-12-24 02:04:00,59.0,26.8,30.24,WNW,292,13.5,16.1,29,0.00,,,0.00,VISReader,2013-12-24 09:04:00,
2013-12-24 02:09:00,58.6,26.4,30.24,NNW,337,14.5,16.1,29,0.00,,,0.00,VISReader,2013-12-24 09:09:00,
2013-12-24 02:15:00,58.8,26.6,30.23,NNW,337,15.0,15.0,29,0.00,,,0.00,VISReader,2013-12-24 09:15:00,
2013-12-24 02:20:00,58.6,26.4,30.23,NNW,337,15.0,15.0,29,0.00,,,0.00,VISReader,2013-12-24 09:20:00,
2013-12-24 02:26:00,58.6,26.4,30.23,NW,315,13.0,16.1,29,0.00,,,0.00,VISReader,2013-12-24 09:26:00,
2013-12-24 02:31:00,58.6,26.4,30.24,NNW,337,11.4,17.6,29,0.00,,,0.00,VISReader,2013-12-24 09:31:00,
2013-12-24 02:36:00,58.5,26.4,30.24,West,270,11.4,18.6,29,0.00,,,0.00,VISReader,2013-12-24 09:36:00,
2013-12-24 02:41:00,58.6,26.4,30.23,NW,315,14.0,18.6,29,0.00,,,0.00,VISReader,2013-12-24 09:41:00,
2013-12-24 02:46:00,58.3,27.0,30.23,NNW,337,10.9,17.1,30,0.00,,,0.00,VISReader,2013-12-24 09:46:00,
2013-12-24 02:51:00,58.3,27.0,30.22,WNW,292,10.4,15.5,30,0.00,,,0.00,VISReader,2013-12-24 09:51:00,
2013-12-24 02:56:00,58.1,26.8,30.22,NNW,337,11.9,15.5,30,0.00,,,0.00,VISReader,2013-12-24 09:56:00,
2013-12-24 03:02:00,58.1,26.8,30.23,NW,315,10.9,14.0,30,0.00,,,0.00,VISReader,2013-12-24 10:02:00,
2013-12-24 03:08:00,58.1,27.6,30.23,NW,315,14.5,14.5,31,0.00,,,0.00,VISReader,2013-12-24 10:08:00,
2013-12-24 03:13:00,58.5,28.0,30.23,NW,315,14.5,18.6,31,0.00,,,0.00,VISReader,2013-12-24 10:13:00,
2013-12-24 03:20:00,58.5,28.0,30.23,NW,315,12.5,18.6,31,0.00,,,0.00,VISReader,2013-12-24 10:20:00,
2013-12-24 03:25:00,58.5,28.0,30.23,NNW,337,15.0,17.6,31,0.00,,,0.00,VISReader,2013-12-24 10:25:00,
2013-12-24 03:30:00,58.1,27.6,30.22,NW,315,15.5,17.6,31,0.00,,,0.00,VISReader,2013-12-24 10:30:00,
2013-12-24 03:36:00,58.1,27.6,30.22,WNW,292,13.5,17.6,31,0.00,,,0.00,VISReader,2013-12-24 10:36:00,
2013-12-24 03:41:00,58.6,27.3,30.22,NW,315,17.6,20.2,30,0.00,,,0.00,VISReader,2013-12-24 10:41:00,
2013-12-24 03:46:00,58.6,27.3,30.22,NW,315,17.6,20.2,30,0.00,,,0.00,VISReader,2013-12-24 10:46:00,
2013-12-24 03:52:00,58.3,27.8,30.22,NW,315,16.6,19.1,31,0.00,,,0.00,VISReader,2013-12-24 10:52:00,
2013-12-24 03:57:00,59.0,28.4,30.22,NW,315,20.2,20.2,31,0.00,,,0.00,VISReader,2013-12-24 10:57:00,
2013-12-24 04:02:00,58.5,28.0,30.22,NNW,337,15.5,20.2,31,0.00,,,0.00,VISReader,2013-12-24 11:02:00,
2013-12-24 04:07:00,58.5,28.0,30.21,NW,315,17.1,19.7,31,0.00,,,0.00,VISReader,2013-12-24 11:07:00,
2013-12-24 04:13:00,58.5,28.0,30.21,WNW,292,18.6,19.1,31,0.00,,,0.00,VISReader,2013-12-24 11:13:00,
2013-12-24 04:18:00,58.1,27.6,30.21,NW,315,15.0,21.7,31,0.00,,,0.00,VISReader,2013-12-24 11:18:00,
2013-12-24 04:23:00,58.3,27.8,30.21,NW,315,15.0,21.7,31,0.00,,,0.00,VISReader,2013-12-24 11:23:00,
2013-12-24 04:28:00,58.3,27.8,30.21,WNW,292,16.6,20.2,31,0.00,,,0.00,VISReader,2013-12-24 11:28:00,
2013-12-24 04:33:00,57.6,28.0,30.21,NNW,337,15.5,17.1,32,0.00,,,0.00,VISReader,2013-12-24 11:33:00,
2013-12-24 04:38:00,57.6,28.0,30.20,WNW,292,11.9,16.1,32,0.00,,,0.00,VISReader,2013-12-24 11:38:00,
2013-12-24 04:43:00,57.4,28.5,30.20,NW,315,16.1,19.1,33,0.00,,,0.00,VISReader,2013-12-24 11:43:00,
2013-12-24 04:49:00,57.4,28.5,30.20,NW,315,14.0,19.1,33,0.00,,,0.00,VISReader,2013-12-24 11:49:00,
2013-12-24 04:56:00,57.4,28.5,30.20,NW,315,17.1,17.1,33,0.00,,,0.00,VISReader,2013-12-24 11:56:00,
2013-12-24 05:01:00,57.4,28.5,30.20,WNW,292,17.6,19.1,33,0.00,,,0.00,VISReader,2013-12-24 12:01:00,
2013-12-24 05:06:00,57.6,28.7,30.20,WNW,292,18.1,19.1,33,0.00,,,0.00,VISReader,2013-12-24 12:06:00,
2013-12-24 05:11:00,57.6,28.7,30.20,WNW,292,16.6,20.2,33,0.00,,,0.00,VISReader,2013-12-24 12:11:00,
2013-12-24 05:16:00,57.4,28.5,30.20,NW,315,14.5,20.2,33,0.00,,,0.00,VISReader,2013-12-24 12:16:00,
2013-12-24 05:21:00,57.6,28.7,30.20,NW,315,17.6,18.6,33,0.00,,,0.00,VISReader,2013-12-24 12:21:00,
2013-12-24 05:27:00,55.9,27.2,30.20,NW,315,14.5,18.6,33,0.00,,,0.00,VISReader,2013-12-24 12:27:00,
2013-12-24 05:32:00,57.6,28.7,30.20,NW,315,13.0,19.1,33,0.00,,,0.00,VISReader,2013-12-24 12:32:00,
2013-12-24 05:37:00,57.4,28.5,30.20,NW,315,13.0,19.1,33,0.00,,,0.00,VISReader,2013-12-24 12:37:00,
2013-12-24 05:42:00,57.6,28.7,30.20,WNW,292,12.5,18.6,33,0.00,,,0.00,VISReader,2013-12-24 12:42:00,
2013-12-24 05:47:00,57.6,28.7,30.20,NW,315,16.1,18.1,33,0.00,,,0.00,VISReader,2013-12-24 12:47:00,
2013-12-24 05:53:00,57.6,28.7,30.20,WNW,292,12.5,18.1,33,0.00,,,0.00,VISReader,2013-12-24 12:53:00,
2013-12-24 05:58:00,57.6,28.7,30.20,NW,315,12.5,18.6,33,0.00,,,0.00,VISReader,2013-12-24 12:58:00,
2013-12-24 06:03:00,57.4,28.5,30.20,NNW,337,15.0,18.6,33,0.00,,,0.00,VISReader,2013-12-24 13:03:00,
2013-12-24 06:08:00,57.4,28.5,30.20,NW,315,14.5,18.1,33,0.00,,,0.00,VISReader,2013-12-24 13:08:00,
2013-12-24 06:13:00,57.2,28.4,30.20,NW,315,10.4,17.1,33,0.00,,,0.00,VISReader,2013-12-24 13:13:00,
2013-12-24 06:18:00,57.0,28.2,30.21,NNW,337,11.4,16.6,33,0.00,,,0.00,VISReader,2013-12-24 13:18:00,
2013-12-24 06:23:00,56.8,28.7,30.21,NNW,337,16.6,16.6,34,0.00,,,0.00,VISReader,2013-12-24 13:23:00,
2013-12-24 06:34:00,57.0,28.9,30.22,WNW,292,13.0,17.1,34,0.00,,,0.00,VISReader,2013-12-24 13:34:00,
2013-12-24 06:39:00,56.5,28.5,30.22,WNW,292,14.0,14.5,34,0.00,,,0.00,VISReader,2013-12-24 13:39:00,
2013-12-24 06:44:00,56.3,29.0,30.22,NW,315,9.9,15.0,35,0.00,,,0.00,VISReader,2013-12-24 13:44:00,
2013-12-24 06:49:00,56.3,29.0,30.22,NNW,337,11.4,15.0,35,0.00,,,0.00,VISReader,2013-12-24 13:49:00,
2013-12-24 06:54:00,55.6,28.4,30.22,West,270,8.9,13.0,35,0.00,,,0.00,VISReader,2013-12-24 13:54:00,
2013-12-24 06:59:00,55.9,28.7,30.22,North,360,11.9,14.0,35,0.00,,,0.00,VISReader,2013-12-24 13:59:00,
2013-12-24 07:04:00,55.9,28.7,30.22,NE,45,11.4,14.0,35,0.00,,,0.00,VISReader,2013-12-24 14:04:00,
2013-12-24 07:10:00,55.9,28.7,30.22,NW,315,10.4,11.9,35,0.00,,,0.00,VISReader,2013-12-24 14:10:00,
2013-12-24 07:15:00,55.8,28.6,30.22,West,270,9.9,13.0,35,0.00,,,0.00,VISReader,2013-12-24 14:15:00,
2013-12-24 07:20:00,55.6,29.1,30.22,NNW,337,11.9,13.0,36,0.00,,,0.00,VISReader,2013-12-24 14:20:00,
2013-12-24 07:25:00,55.4,28.9,30.22,NNW,337,8.9,13.0,36,0.00,,,0.00,VISReader,2013-12-24 14:25:00,
2013-12-24 07:30:00,55.4,28.9,30.22,NNW,337,11.9,15.5,36,0.00,,,0.00,VISReader,2013-12-24 14:30:00,
2013-12-24 07:35:00,55.2,28.7,30.22,NW,315,10.9,15.5,36,0.00,,,0.00,VISReader,2013-12-24 14:35:00,
2013-12-24 07:40:00,55.6,29.1,30.22,NW,315,10.9,15.5,36,0.00,,,0.00,VISReader,2013-12-24 14:40:00,
2013-12-24 07:45:00,55.4,28.9,30.22,WSW,247,9.4,15.5,36,0.00,,,0.00,VISReader,2013-12-24 14:45:00,
2013-12-24 07:50:00,55.4,28.9,30.22,NNE,22,7.8,11.9,36,0.00,,,0.00,VISReader,2013-12-24 14:50:00,
2013-12-24 07:56:00,55.6,29.1,30.22,NNW,337,8.9,10.4,36,0.00,,,0.00,VISReader,2013-12-24 14:56:00,
2013-12-24 08:01:00,55.8,29.3,30.22,WNW,292,10.4,14.0,36,0.00,,,0.00,VISReader,2013-12-24 15:01:00,
2013-12-24 08:06:00,55.8,29.3,30.23,NW,315,8.9,15.0,36,0.00,,,0.00,VISReader,2013-12-24 15:06:00,
2013-12-24 08:11:00,56.1,29.5,30.23,WNW,292,9.4,15.0,36,0.00,,,0.00,VISReader,2013-12-24 15:11:00,
2013-12-24 08:16:00,56.7,30.1,30.23,NW,315,9.4,14.0,36,0.00,,,0.00,VISReader,2013-12-24 15:16:00,
2013-12-24 08:21:00,56.7,30.1,30.23,NW,315,10.9,12.5,36,0.00,,,0.00,VISReader,2013-12-24 15:21:00,
2013-12-24 08:26:00,57.0,29.6,30.23,NNW,337,10.4,12.5,35,0.00,,,0.00,VISReader,2013-12-24 15:26:00,
2013-12-24 08:31:00,57.2,29.8,30.23,West,270,9.4,11.9,35,0.00,,,0.00,VISReader,2013-12-24 15:31:00,
2013-12-24 08:37:00,57.6,29.4,30.23,NW,315,10.4,14.0,34,0.00,,,0.00,VISReader,2013-12-24 15:37:00,
2013-12-24 08:43:00,57.6,29.4,30.23,NNW,337,11.4,12.5,34,0.00,,,0.00,VISReader,2013-12-24 15:43:00,
2013-12-24 08:49:00,58.5,29.5,30.23,NW,315,10.4,12.5,33,0.00,,,0.00,VISReader,2013-12-24 15:49:00,
2013-12-24 08:54:00,58.5,29.5,30.24,NW,315,10.4,12.5,33,0.00,,,0.00,VISReader,2013-12-24 15:54:00,
2013-12-24 08:59:00,59.0,29.2,30.24,ENE,67,9.4,11.9,32,0.00,,,0.00,VISReader,2013-12-24 15:59:00,
2013-12-24 09:04:00,59.4,29.5,30.24,North,360,9.4,12.5,32,0.00,,,0.00,VISReader,2013-12-24 16:04:00,
2013-12-24 09:09:00,59.7,29.8,30.24,NW,315,7.8,12.5,32,0.00,,,0.00,VISReader,2013-12-24 16:09:00,
2013-12-24 09:14:00,59.9,29.2,30.24,West,270,6.8,12.5,31,0.00,,,0.00,VISReader,2013-12-24 16:14:00,
2013-12-24 09:21:00,60.3,29.5,30.24,West,270,9.4,12.5,31,0.00,,,0.00,VISReader,2013-12-24 16:21:00,
2013-12-24 09:26:00,61.0,29.3,30.25,NNW,337,8.9,11.4,30,0.00,,,0.00,VISReader,2013-12-24 16:26:00,
2013-12-24 09:31:00,61.5,29.8,30.25,North,360,6.8,10.4,30,0.00,,,0.00,VISReader,2013-12-24 16:31:00,
2013-12-24 09:37:00,61.9,29.3,30.25,NE,45,8.3,9.4,29,0.00,,,0.00,VISReader,2013-12-24 16:37:00,
2013-12-24 09:42:00,62.4,29.7,30.25,NNW,337,6.8,10.4,29,0.00,,,0.00,VISReader,2013-12-24 16:42:00,
2013-12-24 09:49:00,63.0,29.4,30.25,NNW,337,9.4,10.4,28,0.00,,,0.00,VISReader,2013-12-24 16:49:00,
2013-12-24 09:54:00,63.0,29.4,30.25,NNE,22,8.9,11.9,28,0.00,,,0.00,VISReader,2013-12-24 16:54:00,
2013-12-24 09:59:00,63.3,29.6,30.25,West,270,9.9,13.5,28,0.00,,,0.00,VISReader,2013-12-24 16:59:00,
2013-12-24 10:04:00,63.9,29.3,30.25,NNW,337,11.4,13.5,27,0.00,,,0.00,VISReader,2013-12-24 17:04:00,
2013-12-24 10:09:00,64.4,28.8,30.25,North,360,10.9,11.4,26,0.00,,,0.00,VISReader,2013-12-24 17:09:00,
2013-12-24 10:18:00,63.5,28.0,30.25,NNE,22,7.8,11.9,26,0.00,,,0.00,VISReader,2013-12-24 17:18:00,
2013-12-24 10:23:00,65.5,27.8,30.25,SSW,202,7.8,13.5,24,0.00,,,0.00,VISReader,2013-12-24 17:23:00,
2013-12-24 10:28:00,65.8,28.0,30.25,North,360,8.3,14.0,24,0.00,,,0.00,VISReader,2013-12-24 17:28:00,
2013-12-24 10:33:00,66.4,28.5,30.25,East,90,11.9,15.5,24,0.00,,,0.00,VISReader,2013-12-24 17:33:00,
2013-12-24 10:38:00,66.0,28.2,30.25,NNW,337,12.5,15.5,24,0.00,,,0.00,VISReader,2013-12-24 17:38:00,
2013-12-24 10:43:00,65.8,28.0,30.25,NNW,337,11.4,13.5,24,0.00,,,0.00,VISReader,2013-12-24 17:43:00,
2013-12-24 10:48:00,65.7,27.9,30.25,NE,45,10.9,14.5,24,0.00,,,0.00,VISReader,2013-12-24 17:48:00,
2013-12-24 10:53:00,66.2,28.3,30.25,NNE,22,13.0,16.1,24,0.00,,,0.00,VISReader,2013-12-24 17:53:00,
2013-12-24 11:00:00,66.6,28.7,30.25,NNE,22,8.9,16.1,24,0.00,,,0.00,VISReader,2013-12-24 18:00:00,
2013-12-24 11:05:00,67.1,29.1,30.24,NNW,337,10.9,13.0,24,0.00,,,0.00,VISReader,2013-12-24 18:05:00,
2013-12-24 11:11:00,67.5,28.4,30.24,West,270,10.9,15.0,23,0.00,,,0.00,VISReader,2013-12-24 18:11:00,
2013-12-24 11:16:00,68.0,27.7,30.24,West,270,11.4,15.0,22,0.00,,,0.00,VISReader,2013-12-24 18:16:00,
2013-12-24 11:21:00,68.0,27.7,30.24,NNW,337,14.0,15.0,22,0.00,,,0.00,VISReader,2013-12-24 18:21:00,
2013-12-24 11:26:00,68.2,27.9,30.23,NNW,337,11.9,14.5,22,0.00,,,0.00,VISReader,2013-12-24 18:26:00,
2013-12-24 11:31:00,68.5,28.2,30.23,North,360,8.9,14.5,22,0.00,,,0.00,VISReader,2013-12-24 18:31:00,
2013-12-24 11:36:00,68.9,27.4,30.23,NNE,22,10.4,15.0,21,0.00,,,0.00,VISReader,2013-12-24 18:36:00,
2013-12-24 11:41:00,69.3,27.7,30.23,NNE,22,13.0,15.0,21,0.00,,,0.00,VISReader,2013-12-24 18:41:00,
2013-12-24 11:46:00,69.3,27.7,30.23,NW,315,13.5,14.5,21,0.00,,,0.00,VISReader,2013-12-24 18:46:00,
2013-12-24 11:51:00,70.0,27.1,30.22,WNW,292,13.5,15.0,20,0.00,,,0.00,VISReader,2013-12-24 18:51:00,
2013-12-24 11:58:00,70.0,27.1,30.22,NNW,337,10.9,15.0,20,0.00,,,0.00,VISReader,2013-12-24 18:58:00,
2013-12-24 12:03:00,70.3,26.1,30.22,NNW,337,11.9,15.0,19,0.00,,,0.00,VISReader,2013-12-24 19:03:00,
2013-12-24 12:08:00,70.7,25.1,30.22,NNE,22,13.5,15.0,18,0.00,,,0.00,VISReader,2013-12-24 19:08:00,
2013-12-24 12:13:00,70.7,25.1,30.22,North,360,14.5,17.6,18,0.00,,,0.00,VISReader,2013-12-24 19:13:00,
2013-12-24 12:18:00,71.1,25.4,30.21,NNW,337,8.9,17.6,18,0.00,,,0.00,VISReader,2013-12-24 19:18:00,
2013-12-24 12:23:00,71.1,25.4,30.21,NNW,337,7.8,16.1,18,0.00,,,0.00,VISReader,2013-12-24 19:23:00,
2013-12-24 12:28:00,70.7,25.1,30.21,North,360,12.5,17.6,18,0.00,,,0.00,VISReader,2013-12-24 19:28:00,
2013-12-24 12:33:00,71.2,25.5,30.21,NW,315,13.5,17.6,18,0.00,,,0.00,VISReader,2013-12-24 19:33:00,
2013-12-24 12:39:00,71.1,25.4,30.21,NW,315,13.0,15.0,18,0.00,,,0.00,VISReader,2013-12-24 19:39:00,
2013-12-24 12:44:00,71.8,26.0,30.21,North,360,14.0,15.0,18,0.00,,,0.00,VISReader,2013-12-24 19:44:00,
2013-12-24 12:54:00,72.0,24.8,30.20,West,270,11.9,16.6,17,0.00,,,0.00,VISReader,2013-12-24 19:54:00,
2013-12-24 12:59:00,72.3,25.0,30.20,NW,315,12.5,13.5,17,0.00,,,0.00,VISReader,2013-12-24 19:59:00,
2013-12-24 13:04:00,72.0,24.8,30.19,WNW,292,15.0,15.0,17,0.00,,,0.00,VISReader,2013-12-24 20:04:00,
2013-12-24 13:09:00,71.8,24.6,30.19,NNW,337,10.9,18.6,17,0.00,,,0.00,VISReader,2013-12-24 20:09:00,
2013-12-24 13:14:00,72.3,25.0,30.18,WNW,292,9.4,18.6,17,0.00,,,0.00,VISReader,2013-12-24 20:14:00,
2013-12-24 13:19:00,73.0,24.2,30.18,North,360,10.4,16.6,16,0.00,,,0.00,VISReader,2013-12-24 20:19:00,
2013-12-24 13:24:00,72.9,24.1,30.18,SW,225,9.4,17.1,16,0.00,,,0.00,VISReader,2013-12-24 20:24:00,
2013-12-24 13:30:00,72.9,24.1,30.18,WNW,292,13.0,17.1,16,0.00,,,0.00,VISReader,2013-12-24 20:30:00,
2013-12-24 13:35:00,73.0,24.2,30.18,North,360,8.9,15.0,16,0.00,,,0.00,VISReader,2013-12-24 20:35:00,
2013-12-24 13:40:00,73.0,24.2,30.17,NNE,22,11.4,15.0,16,0.00,,,0.00,VISReader,2013-12-24 20:40:00,
2013-12-24 13:45:00,73.4,24.5,30.17,NNW,337,14.0,15.0,16,0.00,,,0.00,VISReader,2013-12-24 20:45:00,
2013-12-24 13:50:00,72.9,24.1,30.17,NNW,337,8.9,17.6,16,0.00,,,0.00,VISReader,2013-12-24 20:50:00,
2013-12-24 13:55:00,73.6,24.6,30.17,NNE,22,8.3,17.6,16,0.00,,,0.00,VISReader,2013-12-24 20:55:00,
2013-12-24 14:00:00,73.6,23.1,30.17,NNW,337,10.9,11.4,15,0.00,,,0.00,VISReader,2013-12-24 21:00:00,
2013-12-24 14:06:00,75.4,24.5,30.16,NW,315,13.5,18.1,15,0.00,,,0.00,VISReader,2013-12-24 21:06:00,
2013-12-24 14:11:00,73.4,22.9,30.16,ENE,67,13.5,18.1,15,0.00,,,0.00,VISReader,2013-12-24 21:11:00,
2013-12-24 14:16:00,73.4,24.5,30.16,NNW,337,6.3,17.6,16,0.00,,,0.00,VISReader,2013-12-24 21:16:00,
2013-12-24 14:21:00,73.8,23.3,30.16,WNW,292,11.4,15.0,15,0.00,,,0.00,VISReader,2013-12-24 21:21:00,
2013-12-24 14:26:00,73.4,22.9,30.16,WNW,292,7.3,15.0,15,0.00,,,0.00,VISReader,2013-12-24 21:26:00,
2013-12-24 14:31:00,74.1,23.5,30.16,NNE,22,5.3,13.0,15,0.00,,,0.00,VISReader,2013-12-24 21:31:00,
2013-12-24 14:36:00,73.8,21.6,30.16,West,270,5.8,13.5,14,0.00,,,0.00,VISReader,2013-12-24 21:36:00,
2013-12-24 14:41:00,74.7,22.3,30.15,WNW,292,13.0,15.0,14,0.00,,,0.00,VISReader,2013-12-24 21:41:00,
2013-12-24 14:46:00,74.1,21.9,30.15,ENE,67,5.3,16.1,14,0.00,,,0.00,VISReader,2013-12-24 21:46:00,
2013-12-24 14:52:00,72.7,20.8,30.15,NNW,337,15.0,16.1,14,0.00,,,0.00,VISReader,2013-12-24 21:52:00,
2013-12-24 14:57:00,72.7,20.8,30.15,NNW,337,11.9,15.0,14,0.00,,,0.00,VISReader,2013-12-24 21:57:00,
2013-12-24 15:02:00,74.1,21.9,30.14,NNE,22,8.9,11.9,14,0.00,,,0.00,VISReader,2013-12-24 22:02:00,
2013-12-24 15:07:00,74.1,21.9,30.14,NE,45,4.7,11.9,14,0.00,,,0.00,VISReader,2013-12-24 22:07:00,
2013-12-24 15:12:00,74.5,22.2,30.14,NNW,337,8.3,11.9,14,0.00,,,0.00,VISReader,2013-12-24 22:12:00,
2013-12-24 15:17:00,73.6,21.5,30.14,North,360,5.3,9.9,14,0.00,,,0.00,VISReader,2013-12-24 22:17:00,
2013-12-24 15:23:00,73.6,21.5,30.14,North,360,10.9,10.9,14,0.00,,,0.00,VISReader,2013-12-24 22:23:00,
2013-12-24 15:28:00,73.9,21.7,30.14,NE,45,7.8,13.0,14,0.00,,,0.00,VISReader,2013-12-24 22:28:00,
2013-12-24 15:34:00,74.1,21.9,30.14,NW,315,11.9,14.5,14,0.00,,,0.00,VISReader,2013-12-24 22:34:00,
2013-12-24 15:39:00,73.8,21.6,30.14,North,360,6.8,14.5,14,0.00,,,0.00,VISReader,2013-12-24 22:39:00,
2013-12-24 15:44:00,74.1,20.1,30.14,WNW,292,8.9,14.0,13,0.00,,,0.00,VISReader,2013-12-24 22:44:00,
2013-12-24 15:49:00,73.2,21.2,30.14,NNW,337,9.4,14.0,14,0.00,,,0.00,VISReader,2013-12-24 22:49:00,
2013-12-24 15:54:00,73.8,21.6,30.14,North,360,9.4,11.4,14,0.00,,,0.00,VISReader,2013-12-24 22:54:00,
2013-12-24 15:59:00,73.2,21.2,30.14,NNW,337,6.8,14.5,14,0.00,,,0.00,VISReader,2013-12-24 22:59:00,
2013-12-24 16:04:00,73.4,21.3,30.14,NE,45,10.4,14.5,14,0.00,,,0.00,VISReader,2013-12-24 23:04:00,
2013-12-24 16:10:00,73.4,21.3,30.14,WNW,292,5.8,10.9,14,0.00,,,0.00,VISReader,2013-12-24 23:10:00,
2013-12-24 16:15:00,73.0,21.0,30.15,NE,45,9.4,11.4,14,0.00,,,0.00,VISReader,2013-12-24 23:15:00,
2013-12-24 16:20:00,72.7,20.8,30.15,North,360,9.9,12.5,14,0.00,,,0.00,VISReader,2013-12-24 23:20:00,
2013-12-24 16:25:00,72.7,20.8,30.15,North,360,11.4,12.5,14,0.00,,,0.00,VISReader,2013-12-24 23:25:00,
2013-12-24 16:30:00,72.5,20.6,30.14,NNE,22,7.3,13.0,14,0.00,,,0.00,VISReader,2013-12-24 23:30:00,
2013-12-24 16:35:00,72.3,22.1,30.14,NNW,337,7.8,13.0,15,0.00,,,0.00,VISReader,2013-12-24 23:35:00,
2013-12-24 16:40:00,72.1,23.4,30.14,NNW,337,8.3,13.0,16,0.00,,,0.00,VISReader,2013-12-24 23:40:00,
2013-12-24 16:45:00,71.8,21.7,30.14,WNW,292,7.8,13.5,15,0.00,,,0.00,VISReader,2013-12-24 23:45:00,
2013-12-24 16:50:00,71.8,23.2,30.14,NNE,22,10.9,13.5,16,0.00,,,0.00,VISReader,2013-12-24 23:50:00,
2013-12-24 16:56:00,71.6,24.5,30.14,NNW,337,6.8,11.4,17,0.00,,,0.00,VISReader,2013-12-24 23:56:00,
2013-12-24 17:01:00,71.2,25.5,30.14,NNW,337,5.8,11.4,18,0.00,,,0.00,VISReader,2013-12-25 00:01:00,
2013-12-24 17:06:00,70.7,26.4,30.14,NW,315,6.3,11.4,19,0.00,,,0.00,VISReader,2013-12-25 00:06:00,
2013-12-24 17:11:00,70.3,26.1,30.14,West,270,6.3,9.4,19,0.00,,,0.00,VISReader,2013-12-25 00:11:00,
2013-12-24 17:16:00,70.5,27.5,30.14,West,270,5.8,9.9,20,0.00,,,0.00,VISReader,2013-12-25 00:16:00,
2013-12-24 17:21:00,70.2,27.3,30.14,NW,315,9.9,9.9,20,0.00,,,0.00,VISReader,2013-12-25 00:21:00,
2013-12-24 17:26:00,68.9,28.5,30.14,WNW,292,6.8,10.9,22,0.00,,,0.00,VISReader,2013-12-25 00:26:00,
2013-12-24 17:31:00,68.5,29.2,30.14,NW,315,8.9,10.9,23,0.00,,,0.00,VISReader,2013-12-25 00:31:00,
2013-12-24 17:37:00,68.0,28.8,30.14,WNW,292,7.3,10.4,23,0.00,,,0.00,VISReader,2013-12-25 00:37:00,
2013-12-24 17:42:00,67.6,29.5,30.14,NNW,337,5.8,9.4,24,0.00,,,0.00,VISReader,2013-12-25 00:42:00,
2013-12-24 17:47:00,67.1,30.1,30.14,WNW,292,9.4,9.4,25,0.00,,,0.00,VISReader,2013-12-25 00:47:00,
2013-12-24 17:52:00,66.7,30.7,30.14,NW,315,8.3,9.4,26,0.00,,,0.00,VISReader,2013-12-25 00:52:00,
2013-12-24 17:57:00,66.6,30.6,30.14,NW,315,8.9,9.9,26,0.00,,,0.00,VISReader,2013-12-25 00:57:00,
2013-12-24 18:02:00,66.6,30.6,30.15,NW,315,9.4,10.9,26,0.00,,,0.00,VISReader,2013-12-25 01:02:00,
2013-12-24 18:07:00,66.6,30.6,30.15,WNW,292,9.4,10.9,26,0.00,,,0.00,VISReader,2013-12-25 01:07:00,
2013-12-24 18:12:00,66.0,30.1,30.15,WNW,292,8.9,10.9,26,0.00,,,0.00,VISReader,2013-12-25 01:12:00,
2013-12-24 18:17:00,66.2,30.3,30.14,WNW,292,8.3,10.9,26,0.00,,,0.00,VISReader,2013-12-25 01:17:00,
2013-12-24 18:22:00,65.7,30.8,30.14,NNW,337,6.8,10.4,27,0.00,,,0.00,VISReader,2013-12-25 01:22:00,
2013-12-24 18:28:00,65.7,30.8,30.14,NW,315,8.3,9.4,27,0.00,,,0.00,VISReader,2013-12-25 01:28:00,
2013-12-24 18:33:00,65.3,30.5,30.14,NNW,337,6.8,8.9,27,0.00,,,0.00,VISReader,2013-12-25 01:33:00,
2013-12-24 18:38:00,64.9,31.0,30.14,WNW,292,6.3,8.3,28,0.00,,,0.00,VISReader,2013-12-25 01:38:00,
2013-12-24 18:43:00,64.8,30.9,30.14,NNW,337,8.3,8.3,28,0.00,,,0.00,VISReader,2013-12-25 01:43:00,
2013-12-24 18:48:00,64.8,30.9,30.14,NW,315,7.3,8.9,28,0.00,,,0.00,VISReader,2013-12-25 01:48:00,
2013-12-24 18:53:00,64.8,30.9,30.15,NW,315,8.3,8.9,28,0.00,,,0.00,VISReader,2013-12-25 01:53:00,
2013-12-24 18:58:00,64.8,30.9,30.15,WNW,292,7.3,8.3,28,0.00,,,0.00,VISReader,2013-12-25 01:58:00,
2013-12-24 19:03:00,64.8,30.9,30.15,WNW,292,8.3,9.4,28,0.00,,,0.00,VISReader,2013-12-25 02:03:00,
2013-12-24 19:09:00,64.6,30.8,30.15,WNW,292,7.8,9.4,28,0.00,,,0.00,VISReader,2013-12-25 02:09:00,
2013-12-24 19:14:00,64.6,31.6,30.15,WNW,292,5.8,8.3,29,0.00,,,0.00,VISReader,2013-12-25 02:14:00,
2013-12-24 19:19:00,63.7,31.7,30.15,NW,315,5.8,7.8,30,0.00,,,0.00,VISReader,2013-12-25 02:19:00,
2013-12-24 19:24:00,63.1,32.0,30.15,NW,315,7.3,7.8,31,0.00,,,0.00,VISReader,2013-12-25 02:24:00,
2013-12-24 19:29:00,63.0,31.9,30.15,NW,315,6.3,8.3,31,0.00,,,0.00,VISReader,2013-12-25 02:29:00,
2013-12-24 19:34:00,62.6,31.5,30.15,NW,315,5.8,8.3,31,0.00,,,0.00,VISReader,2013-12-25 02:34:00,
2013-12-24 19:39:00,62.6,32.3,30.15,NNW,337,6.8,6.8,32,0.00,,,0.00,VISReader,2013-12-25 02:39:00,
2013-12-24 19:44:00,62.2,32.0,30.15,NW,315,6.8,6.8,32,0.00,,,0.00,VISReader,2013-12-25 02:44:00,
2013-12-24 19:49:00,62.2,32.0,30.15,North,360,5.8,7.3,32,0.00,,,0.00,VISReader,2013-12-25 02:49:00,
2013-12-24 19:55:00,62.1,31.9,30.15,WNW,292,6.3,7.3,32,0.00,,,0.00,VISReader,2013-12-25 02:55:00,
2013-12-24 20:00:00,62.4,32.2,30.15,NW,315,5.8,7.3,32,0.00,,,0.00,VISReader,2013-12-25 03:00:00,
2013-12-24 20:05:00,62.6,32.3,30.15,NW,315,4.7,7.3,32,0.00,,,0.00,VISReader,2013-12-25 03:05:00,
2013-12-24 20:10:00,62.1,31.9,30.15,West,270,2.7,7.3,32,0.00,,,0.00,VISReader,2013-12-25 03:10:00,
2013-12-24 20:15:00,61.3,32.0,30.16,North,360,2.2,5.8,33,0.00,,,0.00,VISReader,2013-12-25 03:15:00,
2013-12-24 20:20:00,60.8,33.0,30.16,NE,45,1.7,2.7,35,0.00,,,0.00,VISReader,2013-12-25 03:20:00,
2013-12-24 20:25:00,59.9,32.9,30.16,NE,45,0.0,2.7,36,0.00,,,0.00,VISReader,2013-12-25 03:25:00,
2013-12-24 20:30:00,59.2,32.9,30.16,NNE,22,1.7,2.2,37,0.00,,,0.00,VISReader,2013-12-25 03:30:00,
2013-12-24 20:35:00,58.6,33.1,30.16,NE,45,2.2,2.7,38,0.00,,,0.00,VISReader,2013-12-25 03:35:00,
2013-12-24 20:41:00,58.3,33.5,30.16,NE,45,1.7,2.7,39,0.00,,,0.00,VISReader,2013-12-25 03:41:00,
2013-12-24 20:46:00,57.9,33.7,30.16,SSE,157,1.7,2.7,40,0.00,,,0.00,VISReader,2013-12-25 03:46:00,
2013-12-24 20:51:00,56.8,34.5,30.17,South,180,0.0,2.2,43,0.00,,,0.00,VISReader,2013-12-25 03:51:00,
2013-12-24 20:56:00,56.7,33.9,30.17,ENE,67,2.2,2.7,42,0.00,,,0.00,VISReader,2013-12-25 03:56:00,
2013-12-24 21:01:00,57.2,33.7,30.17,ENE,67,2.7,3.2,41,0.00,,,0.00,VISReader,2013-12-25 04:01:00,
2013-12-24 21:06:00,57.4,33.9,30.17,ENE,67,2.7,3.2,41,0.00,,,0.00,VISReader,2013-12-25 04:06:00,
2013-12-24 21:11:00,57.4,33.9,30.17,ENE,67,2.7,3.2,41,0.00,,,0.00,VISReader,2013-12-25 04:11:00,
2013-12-24 21:16:00,57.2,33.7,30.16,ESE,112,2.2,3.2,41,0.00,,,0.00,VISReader,2013-12-25 04:16:00,
2013-12-24 21:21:00,56.3,34.7,30.16,SSW,202,1.7,2.7,44,0.00,,,0.00,VISReader,2013-12-25 04:21:00,
2013-12-24 21:27:00,56.1,34.5,30.17,WSW,247,1.7,2.7,44,0.00,,,0.00,VISReader,2013-12-25 04:27:00,
2013-12-24 21:32:00,55.9,34.3,30.17,West,270,2.2,2.7,44,0.00,,,0.00,VISReader,2013-12-25 04:32:00,
2013-12-24 21:37:00,55.8,34.2,30.17,West,270,0.0,2.2,44,0.00,,,0.00,VISReader,2013-12-25 04:37:00,
2013-12-24 21:42:00,56.1,34.5,30.17,SSW,202,0.0,1.7,44,0.00,,,0.00,VISReader,2013-12-25 04:42:00,
2013-12-24 21:47:00,56.5,34.3,30.17,SSW,202,3.2,3.2,43,0.00,,,0.00,VISReader,2013-12-25 04:47:00,
2013-12-24 21:52:00,56.7,34.5,30.17,SSW,202,3.2,3.7,43,0.00,,,0.00,VISReader,2013-12-25 04:52:00,
2013-12-24 21:57:00,56.5,34.3,30.17,SSW,202,3.2,3.7,43,0.00,,,0.00,VISReader,2013-12-25 04:57:00,
2013-12-24 22:01:00,57.0,34.1,30.17,SW,225,3.2,3.7,42,0.00,,,0.00,VISReader,2013-12-25 05:01:00,
2013-12-24 22:02:00,56.8,34.0,30.17,SW,225,2.7,3.7,42,0.00,,,0.00,VISReader,2013-12-25 05:02:00,
2013-12-24 22:04:00,56.7,33.9,30.17,SW,225,2.2,3.7,42,0.00,,,0.00,VISReader,2013-12-25 05:04:00,
2013-12-24 22:07:00,56.3,33.5,30.17,SW,225,1.1,3.7,42,0.00,,,0.00,VISReader,2013-12-25 05:07:00,
2013-12-24 22:12:00,56.3,33.5,30.17,South,180,0.0,2.7,42,0.00,,,0.00,VISReader,2013-12-25 05:12:00,
2013-12-24 22:17:00,56.7,33.9,30.17,SW,225,0.0,1.7,42,0.00,,,0.00,VISReader,2013-12-25 05:17:00,
2013-12-24 22:22:00,56.7,33.9,30.17,SW,225,2.7,3.2,42,0.00,,,0.00,VISReader,2013-12-25 05:22:00,
2013-12-24 22:27:00,56.8,34.0,30.18,South,180,2.7,3.2,42,0.00,,,0.00,VISReader,2013-12-25 05:27:00,
2013-12-24 22:32:00,56.7,33.9,30.18,SSW,202,2.7,3.2,42,0.00,,,0.00,VISReader,2013-12-25 05:32:00,
2013-12-24 22:37:00,56.3,34.1,30.18,SSE,157,1.7,3.2,43,0.00,,,0.00,VISReader,2013-12-25 05:37:00,
2013-12-24 22:42:00,55.8,34.2,30.18,West,270,0.0,2.7,44,0.00,,,0.00,VISReader,2013-12-25 05:42:00,
2013-12-24 22:48:00,56.5,34.3,30.18,WNW,292,2.7,3.2,43,0.00,,,0.00,VISReader,2013-12-25 05:48:00,
2013-12-24 22:55:00,56.1,33.9,30.18,North,360,2.7,3.2,43,0.00,,,0.00,VISReader,2013-12-25 05:55:00,
2013-12-24 23:01:00,56.3,34.1,30.18,NNW,337,1.7,2.7,43,0.00,,,0.00,VISReader,2013-12-25 06:01:00,
2013-12-24 23:06:00,56.1,33.9,30.18,NW,315,3.7,3.7,43,0.00,,,0.00,VISReader,2013-12-25 06:06:00,
2013-12-24 23:12:00,56.1,33.9,30.18,NW,315,2.2,3.7,43,0.00,,,0.00,VISReader,2013-12-25 06:12:00,
2013-12-24 23:17:00,55.6,34.0,30.17,NNE,22,2.7,2.7,44,0.00,,,0.00,VISReader,2013-12-25 06:17:00,
2013-12-24 23:22:00,55.0,34.1,30.17,NNW,337,1.1,2.7,45,0.00,,,0.00,VISReader,2013-12-25 06:22:00,
2013-12-24 23:28:00,52.7,35.6,30.18,SSE,157,1.7,2.7,52,0.00,,,0.00,VISReader,2013-12-25 06:28:00,
2013-12-24 23:33:00,52.3,35.7,30.18,WNW,292,1.1,2.2,53,0.00,,,0.00,VISReader,2013-12-25 06:33:00,
2013-12-24 23:38:00,54.1,33.2,30.18,NNW,337,7.3,7.3,45,0.00,,,0.00,VISReader,2013-12-25 06:38:00,
2013-12-24 23:43:00,58.8,33.3,30.18,NW,315,10.9,11.4,38,0.00,,,0.00,VISReader,2013-12-25 06:43:00,
2013-12-24 23:48:00,59.2,32.9,30.18,NNW,337,7.3,11.4,37,0.00,,,0.00,VISReader,2013-12-25 06:48:00,
2013-12-24 23:53:00,59.0,32.8,30.18,NW,315,6.8,11.4,37,0.00,,,0.00,VISReader,2013-12-25 06:53:00,
2013-12-24 23:58:00,58.6,33.1,30.18,NNW,337,5.3,8.3,38,0.00,,,0.00,VISReader,2013-12-25 06:58:00,